STARLINK-33639, 63481

Orbit data source: Space-Track

STARLINK-33639, 63481 is a payload satellite owned by SpaceX/Seattle (US) in LEO that was launched on Sun, 06 Apr 2025 UTC via an FALCON 9 launch vehicle from the Air Force Eastern Test Range (AFETR). Payload-class satellites include a variety of spacecraft equipped with specific instruments for various scientific and technological missions. These include communications satellites like Starlink; space stations such as the ISS; scientific satellites like the Hubble; Earth observation satellites from companies like Planet Labs, Umbra, and HawkEye 360; GPS; miniature CubeSats for education and research; and military/defense satellites.

Loading next visibility...
Identifier
63481, 2025-070X
Orbit
LEO
Country
Flag of USUS
Related business
Manufacturer
SpaceX/Seattle
Mission
Operational Commercial Communications
Bus & Motor
STARLINK V2MO, Unknown motor
Mass
575 kg wet, ~530 kg dry
Launch date (UTC)
2025-04-06 (1 year ago)
Launch vehicle
FALCON 9
Launch site
Air Force Eastern Test Range (AFETR)
Object type
Payload
Rocket body
Debris
Shape & HBR
Box + 2 Pan, 17.7 m
Radar Cross Section
36.964 m², Large (>1 m²)

Expand to show TLE details & history
Last TLE update: 18 hours ago

TLE from 18 hours ago
0 STARLINK-33639
1 63481U 25070X   26169.37153633  .00015514  00000-0  57221-3 0  9997
2 63481  43.0037  47.7807 0001688 267.8239  92.2419 15.27572989 68415
Epoch: 2026-06-18T08:55Z
TLE epoch observation values (Epoch: 2026-06-18T08:55:00.738Z)
Latitude
-0.00006°
Longitude
7.41174°
Altitude
482.891 km
Speed
7.626 km/s
True Right ascension
03h 11m 07s
True Declination
0° 00' 00"
Sunlit
Object was in daylight at epoch
Visualization orbit readout
Latitude
Unknown
Longitude
Unknown
Altitude
Unknown
Speed
Unknown
Apparent Right ascension
Unknown
Apparent Declination
Unknown
Sunlit
N/A
Visualization observer readout
Local Sidereal Time
14:05:55
Azimuth
Unknown
Elevation
Unknown
Doppler factor
Unknown
Orbital elements
Apogee altitude
486.173 km
Perigee altitude
483.856 km
Semi-major axis
6,863.152 km
Eccentricity
0.00017
Inclination
43.0037°
RAAN
47.7807°
Arg. of periapsis
267.8239°
True anomaly
92.26123°
Mean anomaly
92.2419°
Eccentric anomaly
92.25156°
Mean motion
3.81731 °/min
Orbital period
94.31 mins
BSTAR
0.00057221
Loading maneuver chart data...
Computing Atmospheric mass density...
Loading historical data...
Loading historical data...
Loading historical data...
Loading historical data...
Loading historical data...
Loading historical data...
Loading historical data...

Documentation

Showing up to 5 results
|